Kuchera_Ratio
0.0 0.0 0.0 0.0 0.0 0.0 0.0 0.0 0.0 0.0 0.0 0.0 0.0 0.0 0.0 0.0 0.0 0.0 0.0 0.0 0.0 0.0 0.0 0.0 0.0 0.0 0.0 0.0 0.0 0.0 0.0 0.0 0.0 0.0 0.0 0.0 0.0 0.0 0.0 0.0 0.0 0.0 0.0
0.0 0.0 0.0 0.0 0.0 0.0 0.0 0.0 0.0 0.0 0.0 0.0 0.0 0.0 0.0 0.0 0.0 0.0 0.0 0.0 0.0 0.0 0.0 0.0 0.0 0.0 0.0 0.0 0.0 0.0 0.0 0.0 0.0 0.0 0.0 0.0 0.0 0.0 0.0 0.0 0.0 0.0 0.0
0.0 0.0 0.0 0.0 0.0 0.0 0.0 0.0 0.0 0.0 0.0 0.0 0.0 0.0 0.0 0.0 0.0 0.0 0.0 0.0 0.0 0.0 0.0 0.0 0.0 0.0 0.0 0.0 0.0 0.0 0.0 0.0 0.0 0.0 0.0 0.0 0.0 0.0 0.0 0.0 0.0 0.0 0.0
0.0 0.0 0.0 0.0 0.0 0.0 0.0 0.0 0.0 0.0 0.0 0.0 0.0 0.0 0.0 0.0 0.0 0.0 0.0 0.0 0.0 0.0 0.0 0.0 0.0 0.0 0.0 0.0 0.0 0.0 0.0 0.0 0.0 0.0 0.0 0.0 0.0 0.5 0.0 0.0 0.0 0.0 0.0
0.0 0.0 0.0 0.0 0.0 0.0 0.0 0.0 0.0 0.0 0.0 0.0 0.0 0.0 0.0 0.0 0.0 0.0 0.0 0.0 0.0 0.0 0.0 0.0 0.0 0.0 0.0 0.0 0.0 0.0 0.0 0.0 0.0 0.5 1.2 1.2 1.1 1.8 5.3 1.7 0.0 0.0 0.0
0.0 0.0 0.0 0.0 0.0 0.0 0.0 0.0 0.0 0.0 0.0 0.0 0.0 0.0 0.0 0.0 0.0 0.0 0.0 0.0 0.0 0.0 0.0 0.0 0.0 0.0 0.0 0.0 0.0 0.0 0.0 0.0 0.0 0.4 1.6 3.0 4.5 5.5 7.2 6.1 4.5 3.4 2.3
0.0 0.0 0.0 0.0 0.0 0.0 0.0 0.0 0.0 0.0 0.0 0.0 0.0 0.0 0.0 0.0 0.0 0.0 0.0 0.0 0.0 0.0 0.0 0.0 0.0 0.0 0.0 0.0 0.0 0.0 0.0 0.0 0.0 0.8 1.6 2.4 3.3 4.0 5.3 8.4 8.2 5.7 4.2
0.0 0.0 0.0 0.0 0.0 0.0 0.0 0.0 0.0 0.0 0.0 0.0 0.0 0.0 0.0 0.0 0.0 0.0 0.0 0.0 0.0 0.0 0.0 0.0 0.0 0.0 0.0 0.0 0.0 0.0 0.0 0.0 0.0 0.7 1.9 2.5 2.7 3.7 5.2 7.9 11.2 7.9 7.3
0.0 0.0 0.0 0.0 0.0 0.0 0.0 0.0 0.0 0.0 0.0 0.0 0.0 0.0 0.0 0.0 0.0 0.0 0.0 0.0 0.0 0.0 0.0 0.0 0.0 0.0 0.0 0.0 0.0 0.0 0.0 0.0 0.6 1.3 1.8 3.7 3.4 4.6 5.7 7.0 8.4 12.5 12.8
0.0 0.0 0.0 0.0 0.0 0.0 0.0 0.0 0.0 0.0 0.0 0.0 0.0 0.0 0.0 0.0 0.0 0.0 0.0 0.0 0.0 0.0 0.0 0.0 0.0 0.0 0.0 0.0 0.0 0.0 0.0 1.0 1.3 2.2 3.5 3.6 4.1 5.3 6.2 7.4 8.8 10.3 12.6
0.0 0.0 0.0 0.0 0.0 0.0 0.0 0.0 0.0 0.0 0.0 0.0 0.0 0.0 0.0 0.0 0.0 0.0 0.0 0.0 0.0 0.0 0.0 0.0 0.0 0.0 0.0 0.0 0.2 0.8 1.3 2.1 2.5 2.5 3.8 4.8 4.4 6.2 7.0 8.0 9.2 10.9 11.3
0.0 0.0 0.0 0.0 0.0 0.0 0.0 0.0 0.0 0.0 0.0 0.0 0.0 0.0 0.0 0.0 0.0 0.0 0.0 0.0 0.0 0.0 0.0 0.0 0.0 0.0 0.6 1.0 1.5 2.0 2.2 3.2 4.2 4.4 5.5 6.2 3.2 7.8 7.9 9.0 11.3 11.1 10.0
0.0 0.0 0.0 0.0 0.0 0.0 0.0 0.0 0.0 0.0 0.0 0.0 0.0 0.0 0.0 0.0 0.0 0.0 0.0 0.0 0.0 0.0 0.0 0.0 0.5 1.5 1.9 1.9 2.2 2.7 3.2 4.1 5.3 6.6 7.9 8.7 9.4 10.7 10.5 10.6 11.4 10.1 7.1
0.0 0.0 0.0 0.0 0.0 0.0 0.0 0.0 0.0 0.0 0.0 0.0 0.0 0.0 0.0 0.0 0.0 0.0 0.0 0.0 0.0 0.0 0.2 1.3 2.2 2.7 2.8 3.2 3.3 3.2 4.1 5.9 7.5 8.5 9.2 9.6 9.9 10.6 10.9 10.4 9.1 6.3 9.2
0.0 0.0 0.0 0.0 0.0 0.0 0.0 0.0 0.0 0.0 0.0 0.0 0.0 0.0 0.0 0.0 0.0 0.0 0.0 0.0 0.0 1.1 2.0 2.3 3.1 3.9 4.2 0.4 3.8 3.3 4.9 7.6 8.9 9.5 9.9 9.4 7.0 1.0 1.3 3.3 7.0 7.7 9.4
0.0 0.0 0.0 0.0 0.0 0.0 0.0 0.0 0.0 0.0 0.0 0.0 0.0 0.0 0.0 0.0 0.0 0.0 0.0 0.5 1.9 2.5 3.1 4.1 4.8 5.6 3.3 0.0 0.0 0.0 5.2 8.3 9.1 10.3 10.5 11.0 5.9 6.7 0.3 0.6 0.0 1.1 8.2
0.0 0.0 0.0 0.0 0.0 0.0 0.0 0.0 0.0 0.0 0.0 0.0 0.0 0.0 0.0 0.0 0.0 0.8 1.4 2.4 3.3 4.1 5.2 6.0 6.6 7.1 7.7 0.0 0.0 0.0 6.2 8.4 9.1 10.1 10.2 9.2 5.1 6.1 9.5 5.4 1.6 5.7 2.2
0.0 0.0 0.0 0.0 0.0 0.0 0.0 0.0 0.0 0.0 0.0 0.0 0.0 0.0 0.0 0.2 1.8 2.3 3.1 4.0 5.1 5.8 6.6 7.3 8.1 8.9 8.7 0.1 0.0 0.0 7.8 8.8 9.2 9.4 10.0 10.8 11.5 9.9 5.7 6.0 9.2 11.1 11.5
0.0 0.0 0.0 0.0 0.0 0.0 0.0 0.0 0.0 0.0 0.0 0.0 0.0 0.0 0.5 2.0 3.1 3.7 4.6 5.7 6.5 7.4 8.2 9.1 9.4 10.2 9.9 2.2 0.8 1.6 8.7 9.3 9.6 9.8 10.3 10.9 10.1 3.6 0.4 6.2 11.5 11.1 11.7
0.0 0.0 0.0 0.0 0.0 0.0 0.0 0.0 0.0 0.0 0.0 0.6 1.2 1.6 2.2 3.2 4.1 5.6 6.4 7.5 8.5 9.6 9.9 9.8 10.2 10.3 11.2 5.6 1.9 2.0 8.2 10.8 10.3 9.7 10.0 4.0 4.1 1.1 2.0 7.2 10.2 14.2 13.2
0.0 0.0 0.0 0.0 0.0 0.0 0.0 0.0 0.0 0.4 1.7 2.2 2.9 3.4 3.9 4.8 6.2 7.1 8.2 9.2 9.8 10.2 11.5 12.0 11.4 11.4 11.8 12.3 2.6 1.3 6.2 8.5 7.6 8.9 9.0 8.8 3.5 2.0 2.2 3.2 12.0 12.1 7.5
0.0 0.0 0.0 0.0 0.0 0.0 0.0 0.0 1.2 3.1 3.2 3.3 4.0 5.2 6.1 7.1 7.7 8.4 9.6 10.4 11.7 12.5 12.9 13.0 12.5 12.2 12.5 6.9 4.5 1.9 1.3 1.5 7.7 9.1 9.7 8.9 3.6 4.1 5.1 7.7 6.4 5.4 7.4
0.0 0.0 0.0 0.0 0.0 0.0 0.0 0.3 3.2 4.0 4.2 4.5 6.1 7.3 8.0 8.4 8.8 9.4 10.7 12.3 12.9 13.5 13.8 13.0 13.4 13.3 10.4 12.6 5.3 3.4 2.4 1.8 5.7 7.9 5.3 5.6 5.6 7.1 10.1 8.9 7.8 8.7 14.2
0.0 0.0 0.0 0.0 0.0 1.4 1.3 2.5 5.2 4.3 4.5 6.1 7.8 8.8 9.0 9.7 10.7 11.4 12.2 12.8 13.4 14.0 13.4 13.3 13.4 13.8 12.9 12.4 10.6 9.7 9.8 6.1 6.9 6.3 13.4 8.9 9.5 9.9 11.2 12.6 12.7 13.5 13.4
0.0 0.0 0.0 0.0 0.8 2.8 4.8 5.5 5.3 4.9 6.4 7.6 8.8 9.6 10.5 11.2 12.4 12.7 12.8 12.7 12.7 12.7 12.7 12.9 13.2 13.7 13.5 10.8 4.8 5.2 7.3 7.7 6.7 7.8 12.9 14.1 14.6 15.4 15.0 14.7 14.3 14.0 14.0
0.0 0.7 2.1 3.0 3.7 5.4 6.8 7.0 6.5 5.7 6.7 8.7 10.1 10.8 12.1 12.8 13.0 13.2 13.6 9.1 6.6 5.0 5.0 5.1 7.6 9.4 6.3 4.8 4.5 3.7 4.3 4.7 6.4 12.7 15.2 16.1 16.2 16.5 16.1 16.1 15.8 15.3 15.4